Location: Augirein
(42.9320°N, 0.9181°E)
Time: 03:01:17
(UTC+00:00)

GPS 2-04 Rocket1 - Pass Details

Date: 20 June 2021
Orbit: 415 x 539 km, 35.6° (Epoch: 04 August)

Event Time Altitude Azimuth Distance (km) Brightness Sun altitude
Exits shadow 02:16:54 28° 175° (S) 977 3.6 -16.3°
Drops below altitude 10° 02:20:09 10° 118° (ESE) 1,690 5.4 -16.0°
Sets 02:22:31 0° 107° (ESE) 2,547 6.5 -15.8°
